owner,sensor,date,latitude,longitude,vertical_datum,wind_speed,wind_to_direction,wind_speed_of_gust,qcFlag 
DISL,ioos:station:DISL:KATA:1,2017-04-01T00:00:00Z,30.2583,-88.2131,0.0,4.75,230.5,-999.0,'1111122,1111122,1111122' 
DISL,ioos:station:DISL:KATA:1,2017-04-01T00:30:00Z,30.2583,-88.2131,0.0,5.17,245.2,-999.0,'1111122,1111122,1111122' 
DISL,ioos:station:DISL:KATA:1,2017-04-01T01:00:00Z,30.2583,-88.2131,0.0,4.71,245.9,-999.0,'1111122,1111122,1111122' 
DISL,ioos:station:DISL:KATA:1,2017-04-01T01:30:00Z,30.2583,-88.2131,0.0,4.35,246.0,-999.0,'1111122,1111122,1111122' 
DISL,ioos:station:DISL:KATA:1,2017-04-01T02:00:00Z,30.2583,-88.2131,0.0,4.86,247.3,-999.0,'1111122,1111122,1111122' 
DISL,ioos:station:DISL:KATA:1,2017-04-01T02:30:00Z,30.2583,-88.2131,0.0,3.76,245.9,-999.0,'1111122,1111122,1111122' 
DISL,ioos:station:DISL:KATA:1,2017-04-01T03:00:00Z,30.2583,-88.2131,0.0,4.29,253.7,-999.0,'1111122,1111122,1111122' 
DISL,ioos:station:DISL:KATA:1,2017-04-01T03:30:00Z,30.2583,-88.2131,0.0,3.81,243.1,-999.0,'1111122,1111122,1111122' 
DISL,ioos:station:DISL:KATA:1,2017-04-01T04:00:00Z,30.2583,-88.2131,0.0,3.51,252.0,-999.0,'1111122,1111122,1111122' 
DISL,ioos:station:DISL:KATA:1,2017-04-01T04:30:00Z,30.2583,-88.2131,0.0,2.99,249.8,-999.0,'1111122,1111122,1111122' 
DISL,ioos:station:DISL:KATA:1,2017-04-01T05:00:00Z,30.2583,-88.2131,0.0,3.23,235.2,-999.0,'1111122,1111122,1111122' 
DISL,ioos:station:DISL:KATA:1,2017-04-01T05:30:00Z,30.2583,-88.2131,0.0,2.24,232.6,-999.0,'1111122,1111122,1111122' 
DISL,ioos:station:DISL:KATA:1,2017-04-01T06:00:00Z,30.2583,-88.2131,0.0,3.04,244.2,-999.0,'1111122,1111122,1111122' 
DISL,ioos:station:DISL:KATA:1,2017-04-01T06:30:00Z,30.2583,-88.2131,0.0,2.21,241.4,-999.0,'1111122,1111122,1111122' 
DISL,ioos:station:DISL:KATA:1,2017-04-01T07:00:00Z,30.2583,-88.2131,0.0,2.22,247.0,-999.0,'1111122,1111122,1111122' 
DISL,ioos:station:DISL:KATA:1,2017-04-01T07:30:00Z,30.2583,-88.2131,0.0,2.32,250.2,-999.0,'1111122,1111122,1111122' 
DISL,ioos:station:DISL:KATA:1,2017-04-01T08:00:00Z,30.2583,-88.2131,0.0,2.66,229.2,-999.0,'1111122,1111122,1111122' 
DISL,ioos:station:DISL:KATA:1,2017-04-01T08:30:00Z,30.2583,-88.2131,0.0,2.53,226.5,-999.0,'1111122,1111122,1111122' 
DISL,ioos:station:DISL:KATA:1,2017-04-01T09:00:00Z,30.2583,-88.2131,0.0,2.36,228.9,-999.0,'1111122,1111122,1111122' 
DISL,ioos:station:DISL:KATA:1,2017-04-01T09:30:00Z,30.2583,-88.2131,0.0,1.83,237.0,-999.0,'1111122,1111122,1111122' 
DISL,ioos:station:DISL:KATA:1,2017-04-01T10:00:00Z,30.2583,-88.2131,0.0,1.26,242.1,-999.0,'1111122,1111122,1111122' 
DISL,ioos:station:DISL:KATA:1,2017-04-01T10:30:00Z,30.2583,-88.2131,0.0,1.57,270.1,-999.0,'1111122,1111122,1111122' 
DISL,ioos:station:DISL:KATA:1,2017-04-01T11:00:00Z,30.2583,-88.2131,0.0,2.98,18.74,-999.0,'1111122,1111122,1111122' 
DISL,ioos:station:DISL:KATA:1,2017-04-01T11:30:00Z,30.2583,-88.2131,0.0,3.66,11.22,-999.0,'1111122,1111122,1111122' 
DISL,ioos:station:DISL:KATA:1,2017-04-01T12:00:00Z,30.2583,-88.2131,0.0,4.26,16.43,-999.0,'1111122,1111122,1111122' 
DISL,ioos:station:DISL:KATA:1,2017-04-01T12:30:00Z,30.2583,-88.2131,0.0,4.41,17.39,-999.0,'1111122,1111122,1111122' 
DISL,ioos:station:DISL:KATA:1,2017-04-01T13:00:00Z,30.2583,-88.2131,0.0,4.35,23.89,-999.0,'1111122,1111122,1111122' 
DISL,ioos:station:DISL:KATA:1,2017-04-01T13:30:00Z,30.2583,-88.2131,0.0,4.5,28.88,-999.0,'1111122,1111122,1111122' 
DISL,ioos:station:DISL:KATA:1,2017-04-01T14:00:00Z,30.2583,-88.2131,0.0,3.29,32.58,-999.0,'1111122,1111122,1111122' 
DISL,ioos:station:DISL:KATA:1,2017-04-01T14:30:00Z,30.2583,-88.2131,0.0,2.77,52.09,-999.0,'1111122,1111122,1111122' 
DISL,ioos:station:DISL:KATA:1,2017-04-01T15:00:00Z,30.2583,-88.2131,0.0,3.22,66.22,-999.0,'1111122,1111122,1111122' 
DISL,ioos:station:DISL:KATA:1,2017-04-01T15:30:00Z,30.2583,-88.2131,0.0,4.45,70.0,-999.0,'1111122,1111122,1111122' 
DISL,ioos:station:DISL:KATA:1,2017-04-01T16:00:00Z,30.2583,-88.2131,0.0,5.04,68.28,-999.0,'1111122,1111122,1111122' 
DISL,ioos:station:DISL:KATA:1,2017-04-01T16:30:00Z,30.2583,-88.2131,0.0,5.35,70.37,-999.0,'1111122,1111122,1111122' 
DISL,ioos:station:DISL:KATA:1,2017-04-01T17:00:00Z,30.2583,-88.2131,0.0,4.78,73.28,-999.0,'1111122,1111122,1111122' 
DISL,ioos:station:DISL:KATA:1,2017-04-01T17:30:00Z,30.2583,-88.2131,0.0,4.97,82.4,-999.0,'1111122,1111122,1111122' 
DISL,ioos:station:DISL:KATA:1,2017-04-01T18:00:00Z,30.2583,-88.2131,0.0,3.99,81.3,-999.0,'1111122,1111122,1111122' 
DISL,ioos:station:DISL:KATA:1,2017-04-01T18:30:00Z,30.2583,-88.2131,0.0,3.8,134.0,-999.0,'1111122,1111122,1111122' 
DISL,ioos:station:DISL:KATA:1,2017-04-01T19:00:00Z,30.2583,-88.2131,0.0,3.77,137.1,-999.0,'1111122,1111122,1111122' 
DISL,ioos:station:DISL:KATA:1,2017-04-01T19:30:00Z,30.2583,-88.2131,0.0,4.52,149.6,-999.0,'1111122,1111122,1111122' 
DISL,ioos:station:DISL:KATA:1,2017-04-01T20:00:00Z,30.2583,-88.2131,0.0,4.66,143.9,-999.0,'1111122,1111122,1111122' 
DISL,ioos:station:DISL:KATA:1,2017-04-01T20:30:00Z,30.2583,-88.2131,0.0,4.61,139.5,-999.0,'1111122,1111122,1111122' 
DISL,ioos:station:DISL:KATA:1,2017-04-01T21:00:00Z,30.2583,-88.2131,0.0,5.44,157.8,-999.0,'1111122,1111122,1111122' 
DISL,ioos:station:DISL:KATA:1,2017-04-01T21:30:00Z,30.2583,-88.2131,0.0,4.55,160.7,-999.0,'1111122,1111122,1111122' 
DISL,ioos:station:DISL:KATA:1,2017-04-01T22:00:00Z,30.2583,-88.2131,0.0,4.55,173.2,-999.0,'1111122,1111122,1111122' 
DISL,ioos:station:DISL:KATA:1,2017-04-01T22:30:00Z,30.2583,-88.2131,0.0,4.63,180.4,-999.0,'1111122,1111122,1111122' 
DISL,ioos:station:DISL:KATA:1,2017-04-01T23:00:00Z,30.2583,-88.2131,0.0,4.74,178.4,-999.0,'1111122,1111122,1111122' 
DISL,ioos:station:DISL:KATA:1,2017-04-01T23:30:00Z,30.2583,-88.2131,0.0,4.83,172.5,-999.0,'1111122,1111122,1111122' 
DISL,ioos:station:DISL:KATA:1,2017-04-02T00:00:00Z,30.2583,-88.2131,0.0,4.25,161.5,-999.0,'1111122,1111122,1111122' 
DISL,ioos:station:DISL:KATA:1,2017-04-02T00:30:00Z,30.2583,-88.2131,0.0,4.13,163.6,-999.0,'1111122,1111122,1111122' 
DISL,ioos:station:DISL:KATA:1,2017-04-02T01:00:00Z,30.2583,-88.2131,0.0,4.29,163.3,-999.0,'1111122,1111122,1111122' 
DISL,ioos:station:DISL:KATA:1,2017-04-02T01:30:00Z,30.2583,-88.2131,0.0,3.82,159.9,-999.0,'1111122,1111122,1111122' 
DISL,ioos:station:DISL:KATA:1,2017-04-02T02:00:00Z,30.2583,-88.2131,0.0,3.78,170.9,-999.0,'1111122,1111122,1111122' 
DISL,ioos:station:DISL:KATA:1,2017-04-02T02:30:00Z,30.2583,-88.2131,0.0,3.79,170.4,-999.0,'1111122,1111122,1111122' 
DISL,ioos:station:DISL:KATA:1,2017-04-02T03:00:00Z,30.2583,-88.2131,0.0,3.48,160.0,-999.0,'1111122,1111122,1111122' 
DISL,ioos:station:DISL:KATA:1,2017-04-02T03:30:00Z,30.2583,-88.2131,0.0,3.63,149.8,-999.0,'1111122,1111122,1111122' 
DISL,ioos:station:DISL:KATA:1,2017-04-02T04:00:00Z,30.2583,-88.2131,0.0,3.55,150.9,-999.0,'1111122,1111122,1111122' 
DISL,ioos:station:DISL:KATA:1,2017-04-02T04:30:00Z,30.2583,-88.2131,0.0,4.14,156.0,-999.0,'1111122,1111122,1111122' 
DISL,ioos:station:DISL:KATA:1,2017-04-02T05:00:00Z,30.2583,-88.2131,0.0,4.07,154.3,-999.0,'1111122,1111122,1111122' 
DISL,ioos:station:DISL:KATA:1,2017-04-02T05:30:00Z,30.2583,-88.2131,0.0,4.79,163.0,-999.0,'1111122,1111122,1111122' 
DISL,ioos:station:DISL:KATA:1,2017-04-02T06:00:00Z,30.2583,-88.2131,0.0,5.41,162.5,-999.0,'1111122,1111122,1111122' 
DISL,ioos:station:DISL:KATA:1,2017-04-02T06:30:00Z,30.2583,-88.2131,0.0,6.11,161.8,-999.0,'1111122,1111122,1111122' 
DISL,ioos:station:DISL:KATA:1,2017-04-02T07:00:00Z,30.2583,-88.2131,0.0,5.4,148.7,-999.0,'1111122,1111122,1111122' 
DISL,ioos:station:DISL:KATA:1,2017-04-02T07:30:00Z,30.2583,-88.2131,0.0,5.81,140.7,-999.0,'1111122,1111122,1111122' 
DISL,ioos:station:DISL:KATA:1,2017-04-02T08:00:00Z,30.2583,-88.2131,0.0,6.33,148.3,-999.0,'1111122,1111122,1111122' 
DISL,ioos:station:DISL:KATA:1,2017-04-02T08:30:00Z,30.2583,-88.2131,0.0,5.93,153.0,-999.0,'1111122,1111122,1111122' 
DISL,ioos:station:DISL:KATA:1,2017-04-02T09:00:00Z,30.2583,-88.2131,0.0,5.18,146.9,-999.0,'1111122,1111122,1111122' 
DISL,ioos:station:DISL:KATA:1,2017-04-02T09:30:00Z,30.2583,-88.2131,0.0,5.41,146.2,-999.0,'1111122,1111122,1111122' 
DISL,ioos:station:DISL:KATA:1,2017-04-02T10:00:00Z,30.2583,-88.2131,0.0,5.89,142.6,-999.0,'1111122,1111122,1111122' 
DISL,ioos:station:DISL:KATA:1,2017-04-02T10:30:00Z,30.2583,-88.2131,0.0,6.07,134.3,-999.0,'1111122,1111122,1111122' 
DISL,ioos:station:DISL:KATA:1,2017-04-02T11:00:00Z,30.2583,-88.2131,0.0,6.88,124.8,-999.0,'1111122,1111122,1111122' 
DISL,ioos:station:DISL:KATA:1,2017-04-02T11:30:00Z,30.2583,-88.2131,0.0,6.96,121.8,-999.0,'1111122,1111122,1111122' 
DISL,ioos:station:DISL:KATA:1,2017-04-02T12:00:00Z,30.2583,-88.2131,0.0,6.66,120.1,-999.0,'1111122,1111122,1111122' 
DISL,ioos:station:DISL:KATA:1,2017-04-02T12:30:00Z,30.2583,-88.2131,0.0,6.21,140.5,-999.0,'1111122,1111122,1111122' 
DISL,ioos:station:DISL:KATA:1,2017-04-02T13:00:00Z,30.2583,-88.2131,0.0,5.34,139.0,-999.0,'1111122,1111122,1111122' 
DISL,ioos:station:DISL:KATA:1,2017-04-02T13:30:00Z,30.2583,-88.2131,0.0,5.38,140.8,-999.0,'1111122,1111122,1111122' 
DISL,ioos:station:DISL:KATA:1,2017-04-02T14:00:00Z,30.2583,-88.2131,0.0,5.41,138.8,-999.0,'1111122,1111122,1111122' 
DISL,ioos:station:DISL:KATA:1,2017-04-02T14:30:00Z,30.2583,-88.2131,0.0,5.53,137.9,-999.0,'1111122,1111122,1111122' 
DISL,ioos:station:DISL:KATA:1,2017-04-02T15:00:00Z,30.2583,-88.2131,0.0,6.43,138.7,-999.0,'1111122,1111122,1111122' 
DISL,ioos:station:DISL:KATA:1,2017-04-02T15:30:00Z,30.2583,-88.2131,0.0,6.88,131.6,-999.0,'1111122,1111122,1111122' 
DISL,ioos:station:DISL:KATA:1,2017-04-02T16:00:00Z,30.2583,-88.2131,0.0,8.15,134.2,-999.0,'1111122,1111122,1111122' 
DISL,ioos:station:DISL:KATA:1,2017-04-02T16:30:00Z,30.2583,-88.2131,0.0,8.18,135.8,-999.0,'1111122,1111122,1111122' 
DISL,ioos:station:DISL:KATA:1,2017-04-02T17:00:00Z,30.2583,-88.2131,0.0,8.45,130.2,-999.0,'1111122,1111122,1111122' 
DISL,ioos:station:DISL:KATA:1,2017-04-02T17:30:00Z,30.2583,-88.2131,0.0,8.68,121.8,-999.0,'1111122,1111122,1111122' 
DISL,ioos:station:DISL:KATA:1,2017-04-02T18:00:00Z,30.2583,-88.2131,0.0,10.16,120.3,-999.0,'1111122,1111122,1111122' 
DISL,ioos:station:DISL:KATA:1,2017-04-02T18:30:00Z,30.2583,-88.2131,0.0,9.93,120.0,-999.0,'1111122,1111122,1111122' 
DISL,ioos:station:DISL:KATA:1,2017-04-02T19:00:00Z,30.2583,-88.2131,0.0,9.93,122.7,-999.0,'1111122,1111122,1111122' 
DISL,ioos:station:DISL:KATA:1,2017-04-02T19:30:00Z,30.2583,-88.2131,0.0,9.14,123.3,-999.0,'1111122,1111122,1111122' 
DISL,ioos:station:DISL:KATA:1,2017-04-02T20:00:00Z,30.2583,-88.2131,0.0,9.39,126.8,-999.0,'1111122,1111122,1111122' 
DISL,ioos:station:DISL:KATA:1,2017-04-02T20:30:00Z,30.2583,-88.2131,0.0,9.78,126.0,-999.0,'1111122,1111122,1111122' 
DISL,ioos:station:DISL:KATA:1,2017-04-02T21:00:00Z,30.2583,-88.2131,0.0,9.14,119.3,-999.0,'1111122,1111122,1111122' 
DISL,ioos:station:DISL:KATA:1,2017-04-02T21:30:00Z,30.2583,-88.2131,0.0,9.36,118.3,-999.0,'1111122,1111122,1111122' 
DISL,ioos:station:DISL:KATA:1,2017-04-02T22:00:00Z,30.2583,-88.2131,0.0,10.39,121.4,-999.0,'1111122,1111122,1111122' 
DISL,ioos:station:DISL:KATA:1,2017-04-02T22:30:00Z,30.2583,-88.2131,0.0,10.56,130.4,-999.0,'1111122,1111122,1111122' 
DISL,ioos:station:DISL:KATA:1,2017-04-02T23:00:00Z,30.2583,-88.2131,0.0,11.26,126.4,-999.0,'1111122,1111122,1111122' 
DISL,ioos:station:DISL:KATA:1,2017-04-02T23:30:00Z,30.2583,-88.2131,0.0,10.53,125.3,-999.0,'1111122,1111122,1111122' 
DISL,ioos:station:DISL:KATA:1,2017-04-03T00:00:00Z,30.2583,-88.2131,0.0,10.19,127.5,-999.0,'1111122,1111122,1111122' 
DISL,ioos:station:DISL:KATA:1,2017-04-03T00:30:00Z,30.2583,-88.2131,0.0,10.69,131.7,-999.0,'1111122,1111122,1111122' 
DISL,ioos:station:DISL:KATA:1,2017-04-03T01:00:00Z,30.2583,-88.2131,0.0,10.65,143.0,-999.0,'1111122,1111122,1111122' 
DISL,ioos:station:DISL:KATA:1,2017-04-03T01:30:00Z,30.2583,-88.2131,0.0,10.71,140.0,-999.0,'1111122,1111122,1111122' 
DISL,ioos:station:DISL:KATA:1,2017-04-03T02:00:00Z,30.2583,-88.2131,0.0,10.78,145.5,-999.0,'1111122,1111122,1111122' 
DISL,ioos:station:DISL:KATA:1,2017-04-03T02:30:00Z,30.2583,-88.2131,0.0,10.76,148.4,-999.0,'1111122,1111122,1111122' 
DISL,ioos:station:DISL:KATA:1,2017-04-03T03:00:00Z,30.2583,-88.2131,0.0,11.22,144.4,-999.0,'1111122,1111122,1111122' 
DISL,ioos:station:DISL:KATA:1,2017-04-03T03:30:00Z,30.2583,-88.2131,0.0,11.18,142.7,-999.0,'1111122,1111122,1111122' 
DISL,ioos:station:DISL:KATA:1,2017-04-03T04:00:00Z,30.2583,-88.2131,0.0,11.38,142.7,-999.0,'1111122,1111122,1111122' 
DISL,ioos:station:DISL:KATA:1,2017-04-03T04:30:00Z,30.2583,-88.2131,0.0,10.6,147.7,-999.0,'1111122,1111122,1111122' 
DISL,ioos:station:DISL:KATA:1,2017-04-03T05:00:00Z,30.2583,-88.2131,0.0,11.86,145.9,-999.0,'1111122,1111122,1111122' 
DISL,ioos:station:DISL:KATA:1,2017-04-03T05:30:00Z,30.2583,-88.2131,0.0,11.89,147.9,-999.0,'1111122,1111122,1111122' 
DISL,ioos:station:DISL:KATA:1,2017-04-03T06:00:00Z,30.2583,-88.2131,0.0,11.16,155.6,-999.0,'1111122,1111122,1111122' 
DISL,ioos:station:DISL:KATA:1,2017-04-03T06:30:00Z,30.2583,-88.2131,0.0,13.19,157.9,-999.0,'1111122,1111122,1111122' 
DISL,ioos:station:DISL:KATA:1,2017-04-03T07:00:00Z,30.2583,-88.2131,0.0,11.3,157.5,-999.0,'1111122,1111122,1111122' 
DISL,ioos:station:DISL:KATA:1,2017-04-03T07:30:00Z,30.2583,-88.2131,0.0,10.58,162.6,-999.0,'1111122,1111122,1111122' 
DISL,ioos:station:DISL:KATA:1,2017-04-03T08:00:00Z,30.2583,-88.2131,0.0,11.24,151.5,-999.0,'1111122,1111122,1111122' 
DISL,ioos:station:DISL:KATA:1,2017-04-03T08:30:00Z,30.2583,-88.2131,0.0,10.13,160.0,-999.0,'1111122,1111122,1111122' 
DISL,ioos:station:DISL:KATA:1,2017-04-03T09:00:00Z,30.2583,-88.2131,0.0,11.49,165.6,-999.0,'1111122,1111122,1111122' 
DISL,ioos:station:DISL:KATA:1,2017-04-03T09:30:00Z,30.2583,-88.2131,0.0,11.36,165.2,-999.0,'1111122,1111122,1111122' 
DISL,ioos:station:DISL:KATA:1,2017-04-03T10:00:00Z,30.2583,-88.2131,0.0,11.17,168.9,-999.0,'1111122,1111122,1111122' 
DISL,ioos:station:DISL:KATA:1,2017-04-03T10:30:00Z,30.2583,-88.2131,0.0,11.43,181.4,-999.0,'1111122,1111122,1111122' 
DISL,ioos:station:DISL:KATA:1,2017-04-03T11:00:00Z,30.2583,-88.2131,0.0,11.9,183.4,-999.0,'1111122,1111122,1111122' 
DISL,ioos:station:DISL:KATA:1,2017-04-03T11:30:00Z,30.2583,-88.2131,0.0,11.44,190.1,-999.0,'1111122,1111122,1111122' 
DISL,ioos:station:DISL:KATA:1,2017-04-03T12:00:00Z,30.2583,-88.2131,0.0,11.85,183.1,-999.0,'1111122,1111122,1111122' 
DISL,ioos:station:DISL:KATA:1,2017-04-03T12:30:00Z,30.2583,-88.2131,0.0,13.24,180.2,-999.0,'1111122,1111122,1111122' 
DISL,ioos:station:DISL:KATA:1,2017-04-03T13:00:00Z,30.2583,-88.2131,0.0,12.77,182.6,-999.0,'1111122,1111122,1111122' 
DISL,ioos:station:DISL:KATA:1,2017-04-03T13:30:00Z,30.2583,-88.2131,0.0,11.81,175.7,-999.0,'1111122,1111122,1111122' 
DISL,ioos:station:DISL:KATA:1,2017-04-03T14:00:00Z,30.2583,-88.2131,0.0,9.08,81.0,-999.0,'1111122,1111122,1111122' 
DISL,ioos:station:DISL:KATA:1,2017-04-03T14:30:00Z,30.2583,-88.2131,0.0,7.18,38.99,-999.0,'1111122,1111122,1111122' 
DISL,ioos:station:DISL:KATA:1,2017-04-03T15:00:00Z,30.2583,-88.2131,0.0,8.2,48.3,-999.0,'1111122,1111122,1111122' 
DISL,ioos:station:DISL:KATA:1,2017-04-03T15:30:00Z,30.2583,-88.2131,0.0,10.32,65.92,-999.0,'1111122,1111122,1111122' 
DISL,ioos:station:DISL:KATA:1,2017-04-03T16:00:00Z,30.2583,-88.2131,0.0,12.67,106.6,-999.0,'1111122,1111122,1111122' 
DISL,ioos:station:DISL:KATA:1,2017-04-03T16:30:00Z,30.2583,-88.2131,0.0,10.12,100.6,-999.0,'1111122,1111122,1111122' 
DISL,ioos:station:DISL:KATA:1,2017-04-03T17:00:00Z,30.2583,-88.2131,0.0,12.13,110.1,-999.0,'1111122,1111122,1111122' 
DISL,ioos:station:DISL:KATA:1,2017-04-03T17:30:00Z,30.2583,-88.2131,0.0,10.14,103.5,-999.0,'1111122,1111122,1111122' 
DISL,ioos:station:DISL:KATA:1,2017-04-03T18:00:00Z,30.2583,-88.2131,0.0,8.92,114.4,-999.0,'1111122,1111122,1111122' 
DISL,ioos:station:DISL:KATA:1,2017-04-03T18:30:00Z,30.2583,-88.2131,0.0,6.52,140.8,-999.0,'1111122,1111122,1111122' 
DISL,ioos:station:DISL:KATA:1,2017-04-03T19:00:00Z,30.2583,-88.2131,0.0,6.19,146.6,-999.0,'1111122,1111122,1111122' 
DISL,ioos:station:DISL:KATA:1,2017-04-03T19:30:00Z,30.2583,-88.2131,0.0,5.43,163.9,-999.0,'1111122,1111122,1111122' 
DISL,ioos:station:DISL:KATA:1,2017-04-03T20:00:00Z,30.2583,-88.2131,0.0,5.32,169.7,-999.0,'1111122,1111122,1111122' 
DISL,ioos:station:DISL:KATA:1,2017-04-03T20:30:00Z,30.2583,-88.2131,0.0,5.27,163.0,-999.0,'1111122,1111122,1111122' 
DISL,ioos:station:DISL:KATA:1,2017-04-03T21:00:00Z,30.2583,-88.2131,0.0,4.51,170.0,-999.0,'1111122,1111122,1111122' 
DISL,ioos:station:DISL:KATA:1,2017-04-03T21:30:00Z,30.2583,-88.2131,0.0,3.71,171.5,-999.0,'1111122,1111122,1111122' 
DISL,ioos:station:DISL:KATA:1,2017-04-03T22:00:00Z,30.2583,-88.2131,0.0,4.62,181.9,-999.0,'1111122,1111122,1111122' 
DISL,ioos:station:DISL:KATA:1,2017-04-03T22:30:00Z,30.2583,-88.2131,0.0,5.14,194.0,-999.0,'1111122,1111122,1111122' 
DISL,ioos:station:DISL:KATA:1,2017-04-03T23:00:00Z,30.2583,-88.2131,0.0,5.38,213.8,-999.0,'1111122,1111122,1111122' 
DISL,ioos:station:DISL:KATA:1,2017-04-03T23:30:00Z,30.2583,-88.2131,0.0,6.21,224.8,-999.0,'1111122,1111122,1111122' 
DISL,ioos:station:DISL:KATA:1,2017-04-04T00:00:00Z,30.2583,-88.2131,0.0,5.79,229.8,-999.0,'1111122,1111122,1111122' 
DISL,ioos:station:DISL:KATA:1,2017-04-04T00:30:00Z,30.2583,-88.2131,0.0,6.17,233.2,-999.0,'1111122,1111122,1111122' 
DISL,ioos:station:DISL:KATA:1,2017-04-04T01:00:00Z,30.2583,-88.2131,0.0,6.13,234.3,-999.0,'1111122,1111122,1111122' 
DISL,ioos:station:DISL:KATA:1,2017-04-04T01:30:00Z,30.2583,-88.2131,0.0,6.02,231.6,-999.0,'1111122,1111122,1111122' 
DISL,ioos:station:DISL:KATA:1,2017-04-04T02:00:00Z,30.2583,-88.2131,0.0,6.31,229.4,-999.0,'1111122,1111122,1111122' 
DISL,ioos:station:DISL:KATA:1,2017-04-04T02:30:00Z,30.2583,-88.2131,0.0,5.79,219.5,-999.0,'1111122,1111122,1111122' 
DISL,ioos:station:DISL:KATA:1,2017-04-04T03:00:00Z,30.2583,-88.2131,0.0,5.71,226.9,-999.0,'1111122,1111122,1111122' 
DISL,ioos:station:DISL:KATA:1,2017-04-04T03:30:00Z,30.2583,-88.2131,0.0,5.76,229.6,-999.0,'1111122,1111122,1111122' 
DISL,ioos:station:DISL:KATA:1,2017-04-04T04:00:00Z,30.2583,-88.2131,0.0,5.1,221.0,-999.0,'1111122,1111122,1111122' 
DISL,ioos:station:DISL:KATA:1,2017-04-04T04:30:00Z,30.2583,-88.2131,0.0,5.08,225.0,-999.0,'1111122,1111122,1111122' 
DISL,ioos:station:DISL:KATA:1,2017-04-04T05:00:00Z,30.2583,-88.2131,0.0,5.26,219.7,-999.0,'1111122,1111122,1111122' 
DISL,ioos:station:DISL:KATA:1,2017-04-04T05:30:00Z,30.2583,-88.2131,0.0,5.45,217.8,-999.0,'1111122,1111122,1111122' 
DISL,ioos:station:DISL:KATA:1,2017-04-04T06:00:00Z,30.2583,-88.2131,0.0,4.86,218.6,-999.0,'1111122,1111122,1111122' 
DISL,ioos:station:DISL:KATA:1,2017-04-04T06:30:00Z,30.2583,-88.2131,0.0,4.79,220.0,-999.0,'1111122,1111122,1111122' 
DISL,ioos:station:DISL:KATA:1,2017-04-04T07:00:00Z,30.2583,-88.2131,0.0,5.18,221.2,-999.0,'1111122,1111122,1111122' 
DISL,ioos:station:DISL:KATA:1,2017-04-04T07:30:00Z,30.2583,-88.2131,0.0,4.42,225.5,-999.0,'1111122,1111122,1111122' 
DISL,ioos:station:DISL:KATA:1,2017-04-04T08:00:00Z,30.2583,-88.2131,0.0,4.13,233.3,-999.0,'1111122,1111122,1111122' 
DISL,ioos:station:DISL:KATA:1,2017-04-04T08:30:00Z,30.2583,-88.2131,0.0,3.23,242.5,-999.0,'1111122,1111122,1111122' 
DISL,ioos:station:DISL:KATA:1,2017-04-04T09:00:00Z,30.2583,-88.2131,0.0,2.63,265.1,-999.0,'1111122,1111122,1111122' 
DISL,ioos:station:DISL:KATA:1,2017-04-04T09:30:00Z,30.2583,-88.2131,0.0,3.4,268.4,-999.0,'1111122,1111122,1111122' 
DISL,ioos:station:DISL:KATA:1,2017-04-04T10:00:00Z,30.2583,-88.2131,0.0,3.8,286.9,-999.0,'1111122,1111122,1111122' 
DISL,ioos:station:DISL:KATA:1,2017-04-04T10:30:00Z,30.2583,-88.2131,0.0,3.3,303.0,-999.0,'1111122,1111122,1111122' 
DISL,ioos:station:DISL:KATA:1,2017-04-04T11:00:00Z,30.2583,-88.2131,0.0,3.25,301.5,-999.0,'1111122,1111122,1111122' 
DISL,ioos:station:DISL:KATA:1,2017-04-04T11:30:00Z,30.2583,-88.2131,0.0,2.51,313.7,-999.0,'1111122,1111122,1111122' 
DISL,ioos:station:DISL:KATA:1,2017-04-04T12:00:00Z,30.2583,-88.2131,0.0,1.98,86.4,-999.0,'1111122,1111122,1111122' 
DISL,ioos:station:DISL:KATA:1,2017-04-04T12:30:00Z,30.2583,-88.2131,0.0,2.01,33.79,-999.0,'1111122,1111122,1111122' 
DISL,ioos:station:DISL:KATA:1,2017-04-04T13:00:00Z,30.2583,-88.2131,0.0,3.32,38.41,-999.0,'1111122,1111122,1111122' 
DISL,ioos:station:DISL:KATA:1,2017-04-04T13:30:00Z,30.2583,-88.2131,0.0,2.55,58.03,-999.0,'1111122,1111122,1111122' 
DISL,ioos:station:DISL:KATA:1,2017-04-04T14:00:00Z,30.2583,-88.2131,0.0,2.16,35.97,-999.0,'1111122,1111122,1111122' 
DISL,ioos:station:DISL:KATA:1,2017-04-04T14:30:00Z,30.2583,-88.2131,0.0,2.73,11.48,-999.0,'1111122,1111122,1111122' 
DISL,ioos:station:DISL:KATA:1,2017-04-04T15:00:00Z,30.2583,-88.2131,0.0,2.04,25.38,-999.0,'1111122,1111122,1111122' 
DISL,ioos:station:DISL:KATA:1,2017-04-04T15:30:00Z,30.2583,-88.2131,0.0,2.95,16.38,-999.0,'1111122,1111122,1111122' 
DISL,ioos:station:DISL:KATA:1,2017-04-04T16:00:00Z,30.2583,-88.2131,0.0,3.27,14.18,-999.0,'1111122,1111122,1111122' 
DISL,ioos:station:DISL:KATA:1,2017-04-04T16:30:00Z,30.2583,-88.2131,0.0,3.64,94.8,-999.0,'1111122,1111122,1111122' 
DISL,ioos:station:DISL:KATA:1,2017-04-04T17:00:00Z,30.2583,-88.2131,0.0,4.9,92.3,-999.0,'1111122,1111122,1111122' 
DISL,ioos:station:DISL:KATA:1,2017-04-04T17:30:00Z,30.2583,-88.2131,0.0,6.06,121.1,-999.0,'1111122,1111122,1111122' 
DISL,ioos:station:DISL:KATA:1,2017-04-04T18:00:00Z,30.2583,-88.2131,0.0,5.6,135.5,-999.0,'1111122,1111122,1111122' 
DISL,ioos:station:DISL:KATA:1,2017-04-04T18:30:00Z,30.2583,-88.2131,0.0,5.82,139.2,-999.0,'1111122,1111122,1111122' 
DISL,ioos:station:DISL:KATA:1,2017-04-04T19:00:00Z,30.2583,-88.2131,0.0,6.96,136.9,-999.0,'1111122,1111122,1111122' 
DISL,ioos:station:DISL:KATA:1,2017-04-04T19:30:00Z,30.2583,-88.2131,0.0,6.61,136.3,-999.0,'1111122,1111122,1111122' 
DISL,ioos:station:DISL:KATA:1,2017-04-04T20:00:00Z,30.2583,-88.2131,0.0,6.14,138.3,-999.0,'1111122,1111122,1111122' 
DISL,ioos:station:DISL:KATA:1,2017-04-04T20:30:00Z,30.2583,-88.2131,0.0,6.41,130.0,-999.0,'1111122,1111122,1111122' 
DISL,ioos:station:DISL:KATA:1,2017-04-04T21:00:00Z,30.2583,-88.2131,0.0,6.87,133.3,-999.0,'1111122,1111122,1111122' 
DISL,ioos:station:DISL:KATA:1,2017-04-04T21:30:00Z,30.2583,-88.2131,0.0,7.08,131.6,-999.0,'1111122,1111122,1111122' 
DISL,ioos:station:DISL:KATA:1,2017-04-04T22:00:00Z,30.2583,-88.2131,0.0,7.24,124.8,-999.0,'1111122,1111122,1111122' 
DISL,ioos:station:DISL:KATA:1,2017-04-04T22:30:00Z,30.2583,-88.2131,0.0,7.41,126.5,-999.0,'1111122,1111122,1111122' 
DISL,ioos:station:DISL:KATA:1,2017-04-04T23:00:00Z,30.2583,-88.2131,0.0,7.36,124.2,-999.0,'1111122,1111122,1111122' 
DISL,ioos:station:DISL:KATA:1,2017-04-04T23:30:00Z,30.2583,-88.2131,0.0,7.72,127.8,-999.0,'1111122,1111122,1111122' 
DISL,ioos:station:DISL:KATA:1,2017-04-05T00:00:00Z,30.2583,-88.2131,0.0,7.08,125.1,-999.0,'1111122,1111122,1111122' 
DISL,ioos:station:DISL:KATA:1,2017-04-05T00:30:00Z,30.2583,-88.2131,0.0,7.43,128.1,-999.0,'1111122,1111122,1111122' 
DISL,ioos:station:DISL:KATA:1,2017-04-05T01:00:00Z,30.2583,-88.2131,0.0,8.0,131.8,-999.0,'1111122,1111122,1111122' 
DISL,ioos:station:DISL:KATA:1,2017-04-05T01:30:00Z,30.2583,-88.2131,0.0,8.08,131.3,-999.0,'1111122,1111122,1111122' 
DISL,ioos:station:DISL:KATA:1,2017-04-05T02:00:00Z,30.2583,-88.2131,0.0,7.53,133.3,-999.0,'1111122,1111122,1111122' 
DISL,ioos:station:DISL:KATA:1,2017-04-05T02:30:00Z,30.2583,-88.2131,0.0,7.81,139.5,-999.0,'1111122,1111122,1111122' 
DISL,ioos:station:DISL:KATA:1,2017-04-05T03:00:00Z,30.2583,-88.2131,0.0,7.21,140.9,-999.0,'1111122,1111122,1111122' 
DISL,ioos:station:DISL:KATA:1,2017-04-05T03:30:00Z,30.2583,-88.2131,0.0,7.87,145.4,-999.0,'1111122,1111122,1111122' 
DISL,ioos:station:DISL:KATA:1,2017-04-05T04:00:00Z,30.2583,-88.2131,0.0,8.1,152.6,-999.0,'1111122,1111122,1111122' 
DISL,ioos:station:DISL:KATA:1,2017-04-05T04:30:00Z,30.2583,-88.2131,0.0,8.0,162.4,-999.0,'1111122,1111122,1111122' 
DISL,ioos:station:DISL:KATA:1,2017-04-05T05:00:00Z,30.2583,-88.2131,0.0,8.14,166.9,-999.0,'1111122,1111122,1111122' 
DISL,ioos:station:DISL:KATA:1,2017-04-05T05:30:00Z,30.2583,-88.2131,0.0,8.22,174.3,-999.0,'1111122,1111122,1111122' 